Time,TemperatureF,DewpointF,PressureIn,WindDirection,WindDirectionDegrees,WindSpeedMPH,WindSpeedGustMPH,Humidity,HourlyPrecipIn,Conditions,Clouds,dailyrainin,SolarRadiationWatts/m^2,SoftwareType,DateUTC
2013-12-24 00:14:00,14.0,11.0,30.23,West,275,2.0,5.0,87,0.00,,,0.00,0,weatherlink.com 1.10,2013-12-24 05:14:00,
2013-12-24 00:29:00,13.9,11.0,30.23,WNW,294,2.0,4.0,87,0.00,,,0.00,0,weatherlink.com 1.10,2013-12-24 05:29:00,
2013-12-24 00:44:00,13.9,11.0,30.23,NW,320,1.0,3.0,87,0.00,,,0.00,0,weatherlink.com 1.10,2013-12-24 05:44:00,
2013-12-24 00:59:00,14.1,11.0,30.23,NW,325,1.0,4.0,86,0.00,,,0.00,0,weatherlink.com 1.10,2013-12-24 05:59:00,
2013-12-24 01:14:00,13.6,11.0,30.24,NW,314,2.0,3.0,87,0.00,,,0.00,0,weatherlink.com 1.10,2013-12-24 06:14:00,
2013-12-24 01:29:00,13.3,10.0,30.24,NW,305,2.0,3.0,87,0.00,,,0.00,0,weatherlink.com 1.10,2013-12-24 06:29:00,
2013-12-24 01:44:00,13.2,10.0,30.24,NW,309,1.0,2.0,88,0.00,,,0.00,0,weatherlink.com 1.10,2013-12-24 06:44:00,
2013-12-24 01:59:00,12.7,10.0,30.25,WNW,292,2.0,3.0,87,0.00,,,0.00,0,weatherlink.com 1.10,2013-12-24 06:59:00,
2013-12-24 02:14:00,12.4,9.0,30.25,WNW,296,1.0,3.0,87,0.00,,,0.00,0,weatherlink.com 1.10,2013-12-24 07:14:00,
2013-12-24 02:29:00,12.8,10.0,30.25,NW,311,2.0,3.0,87,0.00,,,0.00,0,weatherlink.com 1.10,2013-12-24 07:29:00,
2013-12-24 02:44:00,11.9,9.0,30.26,NW,313,1.0,4.0,87,0.00,,,0.00,0,weatherlink.com 1.10,2013-12-24 07:44:00,
2013-12-24 02:59:00,11.6,8.0,30.26,NW,311,1.0,3.0,86,0.00,,,0.00,0,weatherlink.com 1.10,2013-12-24 07:59:00,
2013-12-24 03:14:00,10.9,8.0,30.25,WNW,295,1.0,3.0,86,0.00,,,0.00,0,weatherlink.com 1.10,2013-12-24 08:14:00,
2013-12-24 03:29:00,11.0,8.0,30.26,NW,311,1.0,3.0,87,0.00,,,0.00,0,weatherlink.com 1.10,2013-12-24 08:29:00,
2013-12-24 03:44:00,10.9,8.0,30.26,NW,314,1.0,2.0,87,0.00,,,0.00,0,weatherlink.com 1.10,2013-12-24 08:44:00,
2013-12-24 03:59:00,11.2,8.0,30.25,NW,321,1.0,4.0,87,0.00,,,0.00,0,weatherlink.com 1.10,2013-12-24 08:59:00,
2013-12-24 04:13:00,10.8,7.0,30.26,NW,322,2.0,4.0,86,0.00,,,0.00,0,weatherlink.com 1.10,2013-12-24 09:13:00,
2013-12-24 04:29:00,10.5,7.0,30.26,NW,309,2.0,3.0,86,0.00,,,0.00,0,weatherlink.com 1.10,2013-12-24 09:29:00,
2013-12-24 04:44:00,10.0,7.0,30.26,WNW,299,2.0,3.0,86,0.00,,,0.00,0,weatherlink.com 1.10,2013-12-24 09:44:00,
2013-12-24 04:59:00,10.3,7.0,30.25,NW,320,2.0,3.0,87,0.00,,,0.00,0,weatherlink.com 1.10,2013-12-24 09:59:00,
2013-12-24 05:14:00,9.9,7.0,30.25,NW,325,1.0,3.0,86,0.00,,,0.00,0,weatherlink.com 1.10,2013-12-24 10:14:00,
2013-12-24 05:29:00,9.9,7.0,30.24,NW,325,1.0,2.0,86,0.00,,,0.00,0,weatherlink.com 1.10,2013-12-24 10:29:00,
2013-12-24 05:44:00,10.1,7.0,30.24,NNW,330,3.0,3.0,86,0.00,,,0.00,0,weatherlink.com 1.10,2013-12-24 10:44:00,
2013-12-24 05:59:00,9.7,6.0,30.24,NNW,331,3.0,3.0,86,0.00,,,0.00,0,weatherlink.com 1.10,2013-12-24 10:59:00,
2013-12-24 06:15:00,9.3,6.0,30.24,NNW,346,0.0,4.0,86,0.00,,,0.00,0,weatherlink.com 1.10,2013-12-24 11:15:00,
2013-12-24 06:29:00,9.5,6.0,30.25,NNW,342,2.0,3.0,86,0.00,,,0.00,0,weatherlink.com 1.10,2013-12-24 11:29:00,
2013-12-24 06:45:00,9.2,6.0,30.25,NNW,341,2.0,4.0,86,0.00,,,0.00,0,weatherlink.com 1.10,2013-12-24 11:45:00,
2013-12-24 07:00:00,8.9,6.0,30.25,NW,326,1.0,4.0,86,0.00,,,0.00,0,weatherlink.com 1.10,2013-12-24 12:00:00,
2013-12-24 07:15:00,8.1,5.0,30.25,NW,322,2.0,3.0,85,0.00,,,0.00,0,weatherlink.com 1.10,2013-12-24 12:15:00,
2013-12-24 07:30:00,8.0,4.0,30.25,NW,325,1.0,3.0,85,0.00,,,0.00,0,weatherlink.com 1.10,2013-12-24 12:30:00,
2013-12-24 07:45:00,8.0,4.0,30.25,NW,324,3.0,4.0,85,0.00,,,0.00,0,weatherlink.com 1.10,2013-12-24 12:45:00,
2013-12-24 08:00:00,8.0,5.0,30.25,NNW,333,0.0,3.0,86,0.00,,,0.00,11,weatherlink.com 1.10,2013-12-24 13:00:00,
2013-12-24 08:15:00,7.8,5.0,30.25,NNW,342,1.0,3.0,86,0.00,,,0.00,18,weatherlink.com 1.10,2013-12-24 13:15:00,
2013-12-24 08:30:00,7.6,4.0,30.25,NNW,334,1.0,2.0,86,0.00,,,0.00,26,weatherlink.com 1.10,2013-12-24 13:30:00,
2013-12-24 08:45:00,7.6,4.0,30.25,NW,326,2.0,3.0,86,0.00,,,0.00,53,weatherlink.com 1.10,2013-12-24 13:45:00,
2013-12-24 09:00:00,7.1,4.0,30.26,NNW,333,2.0,3.0,86,0.00,,,0.00,63,weatherlink.com 1.10,2013-12-24 14:00:00,
2013-12-24 09:15:00,6.5,3.0,30.26,NNW,335,2.0,4.0,85,0.00,,,0.00,109,weatherlink.com 1.10,2013-12-24 14:15:00,
2013-12-24 09:30:00,6.0,3.0,30.27,NW,320,2.0,3.0,85,0.00,,,0.00,127,weatherlink.com 1.10,2013-12-24 14:30:00,
2013-12-24 09:45:00,6.8,3.0,30.27,NW,304,3.0,4.0,85,0.00,,,0.00,181,weatherlink.com 1.10,2013-12-24 14:45:00,
2013-12-24 10:00:00,6.8,3.0,30.27,NW,325,1.0,3.0,84,0.00,,,0.00,218,weatherlink.com 1.10,2013-12-24 15:00:00,
2013-12-24 10:15:00,6.3,2.0,30.28,West,275,3.0,4.0,82,0.00,,,0.00,183,weatherlink.com 1.10,2013-12-24 15:15:00,
2013-12-24 10:30:00,6.8,2.0,30.27,NNW,336,3.0,4.0,81,0.00,,,0.00,192,weatherlink.com 1.10,2013-12-24 15:30:00,
2013-12-24 10:45:00,7.0,3.0,30.27,WNW,284,1.0,3.0,82,0.00,,,0.00,241,weatherlink.com 1.10,2013-12-24 15:45:00,
2013-12-24 11:00:00,7.7,4.0,30.26,NW,324,3.0,3.0,83,0.00,,,0.00,243,weatherlink.com 1.10,2013-12-24 16:00:00,
2013-12-24 11:15:00,7.5,3.0,30.25,NW,313,3.0,4.0,82,0.00,,,0.00,250,weatherlink.com 1.10,2013-12-24 16:15:00,
2013-12-24 11:30:00,8.1,4.0,30.25,NNW,339,1.0,2.0,82,0.01,,,0.01,246,weatherlink.com 1.10,2013-12-24 16:30:00,
2013-12-24 11:45:00,8.5,4.0,30.24,NW,314,1.0,3.0,82,0.01,,,0.01,250,weatherlink.com 1.10,2013-12-24 16:45:00,
2013-12-24 12:00:00,8.2,4.0,30.24,NW,312,3.0,4.0,81,0.02,,,0.02,265,weatherlink.com 1.10,2013-12-24 17:00:00,
2013-12-24 12:15:00,8.1,4.0,30.24,NW,318,2.0,3.0,82,0.02,,,0.02,232,weatherlink.com 1.10,2013-12-24 17:15:00,
2013-12-24 12:30:00,8.1,4.0,30.23,NW,317,2.0,5.0,82,0.01,,,0.02,93,weatherlink.com 1.10,2013-12-24 17:30:00,
2013-12-24 12:45:00,8.0,4.0,30.23,WSW,257,3.0,4.0,82,0.01,,,0.02,221,weatherlink.com 1.10,2013-12-24 17:45:00,
2013-12-24 13:00:00,7.8,3.0,30.23,West,263,3.0,4.0,82,0.00,,,0.02,121,weatherlink.com 1.10,2013-12-24 18:00:00,
2013-12-24 13:15:00,8.2,4.0,30.23,West,279,1.0,4.0,83,0.00,,,0.02,246,weatherlink.com 1.10,2013-12-24 18:15:00,
2013-12-24 13:30:00,8.0,4.0,30.23,West,263,3.0,4.0,82,0.00,,,0.02,113,weatherlink.com 1.10,2013-12-24 18:30:00,
2013-12-24 13:45:00,7.5,3.0,30.23,West,269,1.0,3.0,83,0.00,,,0.02,97,weatherlink.com 1.10,2013-12-24 18:45:00,
2013-12-24 14:00:00,7.8,4.0,30.23,WSW,254,2.0,4.0,83,0.00,,,0.02,79,weatherlink.com 1.10,2013-12-24 19:00:00,
2013-12-24 14:15:00,7.4,3.0,30.23,WNW,290,2.0,4.0,83,0.00,,,0.02,72,weatherlink.com 1.10,2013-12-24 19:15:00,
2013-12-24 14:30:00,7.7,4.0,30.24,WNW,299,2.0,5.0,83,0.00,,,0.02,51,weatherlink.com 1.10,2013-12-24 19:30:00,
2013-12-24 14:45:00,7.2,3.0,30.24,West,261,3.0,4.0,83,0.00,,,0.02,56,weatherlink.com 1.10,2013-12-24 19:45:00,
2013-12-24 15:00:00,7.4,3.0,30.25,West,272,2.0,4.0,83,0.00,,,0.02,104,weatherlink.com 1.10,2013-12-24 20:00:00,
2013-12-24 15:15:00,7.5,3.0,30.25,West,280,1.0,4.0,83,0.00,,,0.02,47,weatherlink.com 1.10,2013-12-24 20:15:00,
2013-12-24 15:30:00,7.7,4.0,30.25,West,267,2.0,3.0,84,0.00,,,0.02,49,weatherlink.com 1.10,2013-12-24 20:30:00,
2013-12-24 15:45:00,7.3,4.0,30.26,WNW,300,1.0,3.0,84,0.00,,,0.02,32,weatherlink.com 1.10,2013-12-24 20:45:00,
2013-12-24 16:00:00,6.8,3.0,30.27,West,259,2.0,5.0,84,0.00,,,0.02,14,weatherlink.com 1.10,2013-12-24 21:00:00,
2013-12-24 16:15:00,6.5,3.0,30.27,West,276,1.0,4.0,85,0.00,,,0.02,7,weatherlink.com 1.10,2013-12-24 21:15:00,
2013-12-24 16:30:00,6.5,3.0,30.28,West,265,2.0,3.0,85,0.00,,,0.02,0,weatherlink.com 1.10,2013-12-24 21:30:00,
2013-12-24 16:45:00,5.9,2.0,30.29,West,277,2.0,4.0,85,0.00,,,0.02,0,weatherlink.com 1.10,2013-12-24 21:45:00,
2013-12-24 17:00:00,5.5,2.0,30.30,West,267,3.0,3.0,85,0.00,,,0.02,0,weatherlink.com 1.10,2013-12-24 22:00:00,
2013-12-24 17:15:00,5.2,2.0,30.30,West,269,2.0,4.0,85,0.00,,,0.02,0,weatherlink.com 1.10,2013-12-24 22:15:00,
2013-12-24 17:31:00,5.1,2.0,30.31,WSW,250,3.0,4.0,85,0.00,,,0.02,0,weatherlink.com 1.10,2013-12-24 22:31:00,
2013-12-24 17:46:00,5.1,2.0,30.32,WNW,288,2.0,4.0,85,0.00,,,0.02,0,weatherlink.com 1.10,2013-12-24 22:46:00,
2013-12-24 18:01:00,5.0,4.0,30.32,West,269,3.0,4.0,96,0.00,,,0.02,0,weatherlink.com 1.10,2013-12-24 23:01:00,
2013-12-24 18:16:00,4.7,1.0,30.33,West,276,2.0,5.0,85,0.00,,,0.02,0,weatherlink.com 1.10,2013-12-24 23:16:00,
2013-12-24 18:31:00,4.7,1.0,30.34,WSW,248,3.0,4.0,86,0.00,,,0.02,0,weatherlink.com 1.10,2013-12-24 23:31:00,
2013-12-24 18:46:00,4.6,1.0,30.35,WNW,303,3.0,6.0,86,0.00,,,0.02,0,weatherlink.com 1.10,2013-12-24 23:46:00,
2013-12-24 19:01:00,4.1,1.0,30.35,West,263,3.0,4.0,85,0.00,,,0.02,0,weatherlink.com 1.10,2013-12-25 00:01:00,
2013-12-24 19:16:00,4.0,1.0,30.36,West,272,5.0,6.0,85,0.00,,,0.02,0,weatherlink.com 1.10,2013-12-25 00:16:00,
2013-12-24 19:31:00,3.2,-1.0,30.37,WNW,287,3.0,5.0,84,0.00,,,0.02,0,weatherlink.com 1.10,2013-12-25 00:31:00,
2013-12-24 19:46:00,2.5,-1.0,30.37,West,263,4.0,4.0,84,0.00,,,0.02,0,weatherlink.com 1.10,2013-12-25 00:46:00,
2013-12-24 20:01:00,2.2,-2.0,30.38,West,265,2.0,5.0,84,0.00,,,0.02,0,weatherlink.com 1.10,2013-12-25 01:01:00,
2013-12-24 20:16:00,1.9,-2.0,30.38,West,275,2.0,5.0,84,0.00,,,0.02,0,weatherlink.com 1.10,2013-12-25 01:16:00,
2013-12-24 20:31:00,1.8,-2.0,30.38,WSW,244,3.0,4.0,84,0.00,,,0.02,0,weatherlink.com 1.10,2013-12-25 01:31:00,
2013-12-24 20:46:00,1.4,-2.0,30.39,WSW,251,1.0,4.0,84,0.00,,,0.02,0,weatherlink.com 1.10,2013-12-25 01:46:00,
2013-12-24 21:01:00,1.0,-3.0,30.39,SW,223,2.0,4.0,84,0.00,,,0.02,0,weatherlink.com 1.10,2013-12-25 02:01:00,
2013-12-24 21:16:00,0.8,-3.0,30.39,West,260,1.0,4.0,84,0.00,,,0.02,0,weatherlink.com 1.10,2013-12-25 02:16:00,
2013-12-24 21:31:00,0.2,-4.0,30.40,SW,221,2.0,3.0,84,0.00,,,0.02,0,weatherlink.com 1.10,2013-12-25 02:31:00,
2013-12-24 21:47:00,0.2,-3.0,30.40,SW,236,1.0,4.0,85,0.00,,,0.02,0,weatherlink.com 1.10,2013-12-25 02:47:00,
2013-12-24 22:02:00,0.0,-3.0,30.41,SSW,212,3.0,4.0,85,0.00,,,0.02,0,weatherlink.com 1.10,2013-12-25 03:02:00,
2013-12-24 22:17:00,-0.3,-4.0,30.41,SW,216,1.0,4.0,85,0.00,,,0.02,0,weatherlink.com 1.10,2013-12-25 03:17:00,
2013-12-24 22:32:00,-0.5,-4.0,30.41,SW,221,1.0,4.0,85,0.00,,,0.02,0,weatherlink.com 1.10,2013-12-25 03:32:00,
2013-12-24 22:47:00,-0.7,-4.0,30.42,SW,236,2.0,4.0,85,0.00,,,0.02,0,weatherlink.com 1.10,2013-12-25 03:47:00,
2013-12-24 23:02:00,-0.8,-4.0,30.43,SW,226,2.0,4.0,85,0.00,,,0.02,0,weatherlink.com 1.10,2013-12-25 04:02:00,
2013-12-24 23:17:00,-1.1,-5.0,30.43,SSW,208,1.0,3.0,85,0.00,,,0.02,0,weatherlink.com 1.10,2013-12-25 04:17:00,
2013-12-24 23:32:00,-1.4,-5.0,30.43,SW,215,2.0,5.0,85,0.00,,,0.02,0,weatherlink.com 1.10,2013-12-25 04:32:00,
2013-12-24 23:47:00,-1.4,-5.0,30.43,SW,219,2.0,4.0,85,0.00,,,0.02,0,weatherlink.com 1.10,2013-12-25 04:47:00,